Other Public Products
Issued by NWS Grand Forks, ND

Home | Current Version | Previous Version | Text Only | Print | Product List | Glossary Off
Versions: 1 2 3 4 5 6 7 8 9 10 11 12 13 14 15 16 17 18 19 20 21 22 23 24 25 26 27 28 29 30 31 32 33 34 35 36 37 38 39 40 41 42 43 44 45 46 47 48 49 50

000
FPUS83 KFGF 260010
OPUFGF
NATIONAL WEATHER SERVICE EASTERN NORTH DAKOTA/GRAND FORKS ND
700 PM CDT MON MAY 25 2015

 **SATELLITE DATA USED TO AUGMENT SKY COVER AT AUTOMATED STATIONS**
 *****  WEATHER ACROSS EASTERN NORTH DAKOTA  *****

CITY           SKY/WX    TMP DP  RH WIND       PRES   REMARKS
GRAND FORKS    PTSUNNY   72  53  51 S14       29.78R
6HR MIN TEMP:  68; 6HR MAX TEMP:  75;

GRAND FORKS AF PTSUNNY   72  53  50 S15       29.78R
GRAND CITY NWS   N/A     66 N/A N/A S15         N/A
BUXTON         NOT AVBL
DEVILS LAKE    PTSUNNY   77  39  25 S10       29.77S
6HR MIN TEMP:  75; 6HR MAX TEMP:  79;

FARGO          CLOUDY    64  54  69 E5        29.81R
6HR MIN TEMP:  64; 6HR MAX TEMP:  66; 6HR PCP: TRACE;

WAHPETON ARPT  CLOUDY    63  50  63 NE12G17   29.81R
$$

 *****  WEATHER ACROSS CENTRAL AND WESTERN NORTH DAKOTA  *****

CITY           SKY/WX    TMP DP  RH WIND       PRES   REMARKS
JAMESTOWN      MOSUNNY   67  57  70 S13       29.81R
6HR MIN TEMP:  67; 6HR MAX TEMP:  73; 6HR PCP: TRACE;

BISMARCK       CLOUDY    66  56  70 W8        29.85R
6HR MIN TEMP:  65; 6HR MAX TEMP:  71;

MINOT          MOSUNNY   74  44  34 SW3       29.81S
6HR MIN TEMP:  72; 6HR MAX TEMP:  79;

MINOT AFB      MOSUNNY   80  40  24 S1        29.79S
6HR MIN TEMP:  76; 6HR MAX TEMP:  80;

GARRISON         N/A     74  49  41 W12       29.83R
6HR MIN TEMP:  69; 6HR MAX TEMP:  77;

WILLISTON      PTSUNNY   69  47  45 W13       29.85S
6HR MIN TEMP:  69; 6HR MAX TEMP:  78;

DICKINSON      CLOUDY    65  47  52 S9        29.88S
6HR MIN TEMP:  60; 6HR MAX TEMP:  67; 6HR PCP: TRACE;

HETTINGER      CLOUDY    62  50  64 SE12      29.92R
6HR MIN TEMP:  55; 6HR MAX TEMP:  64; 6HR PCP:  0.01;

$$

 *****  OTHER OBSERVATIONS NORTHEAST NORTH DAKOTA  *****

CITY           SKY/WX    TMP DP  RH WIND       PRES   REMARKS
WALHALLA         N/A     77  43  29 SE5       29.74R
LANGDON        MOCLDY    77  36  22 CALM      29.77S
CAVALIER       FAIR      79  41  25 SE6       29.74R
GRAFTON        FAIR      75  50  41 S13       29.76R
CANDO          FAIR      81  36  19 CALM      29.77F
FORT TOTTEN      N/A     78  38  23 SE5       29.95
ROLLA            N/A     77  34  20 W8        29.79S
RUGBY          NOT AVBL
 ***** THE ABOVE OBSERVATIONS ARE NON NWS ARE NOT QUALITY
        CONTROLLED AND MAY MIS-REPORT RAIN FOR SNOW...
$$

 *****  OTHER OBSERVATIONS SOUTHEAST NORTH DAKOTA *****

CITY           SKY/WX    TMP DP  RH WIND       PRES   REMARKS
COOPERSTOWN    NOT AVBL
VALLEY CITY    FAIR      64  59  82 S10       29.83R
OAKES            N/A     63  55  77 NE7       29.83S
GWINNER        NOT AVBL
SHEYENNE NWR     N/A     66  50  57 NE7       29.95S
BUFFALO        NOT AVBL
WYNDMERE         N/A     64  54  68 NE8         N/A
 ***** THE ABOVE OBSERVATIONS ARE NON NWS ARE NOT QUALITY
       CONTROLLED AND MAY MIS-REPORT RAIN FOR SNOW...
$$

  *****  WEATHER ACROSS NORTHERN MINNESOTA  *****

CITY           SKY/WX    TMP DP  RH WIND       PRES   REMARKS
FLAG ISLAND    CLOUDY    61  55  82 S8        29.75R
WARROAD        CLOUDY    70  55  60 SW8       29.77R
ROSEAU         CLOUDY    72  54  53 SW10      29.76S
HALLOCK        MOSUNNY   79  37  22 E6        29.74S
THF RVR FALLS  CLOUDY    68  46  45 SW7       29.80S
6HR MIN TEMP:  64; 6HR MAX TEMP:  70;

HALSTAD        NOT AVBL
FOSSTON        LGT RAIN  59  54  82 CALM      29.82R
BAUDETTE       CLOUDY    66  54  65 S9        29.77R
6HR MIN TEMP:  64; 6HR MAX TEMP:  68;

WASKISH        CLOUDY    61  54  77 CALM      29.81R
CROOKSTON      PTSUNNY   70  48  46 S9        29.80S
$$
  *****  WEATHER ACROSS CENTRAL AND WEST MINNESOTA  *****

CITY           SKY/WX    TMP DP  RH WIND       PRES   REMARKS
BEMIDJI        LGT RAIN  56  54  93 CALM      29.81R
PARK RAPIDS    LGT RAIN  57  53  86 NE10      29.78S
6HR MIN TEMP:  57; 6HR MAX TEMP:  60; 6HR PCP:  0.30;

WADENA         PTSUNNY   55  52  88 NE22G31   29.75R
DETROIT LAKES  DRIZZLE   59  54  82 NE10G16   29.82R
MOORHEAD       CLOUDY    63  54  72 E8        29.81S
FERGUS FALLS   PTSUNNY   61  52  72 NE16G26   29.79R
ELBOW LAKE     CLOUDY    59  53  79 NE17G23   29.77R
6HR MIN TEMP:  58; 6HR MAX TEMP:  62;

MORRIS MN        N/A     63  55  77 N15       29.76R
STAPLES        LGT RAIN  55  54  94 N15G22    29.74R
WHEATON        CLOUDY    59  54  82 N9        29.81R
$$
  *****  WEATHER ELSEWHERE ACROSS MINNESOTA  *****

CITY           SKY/WX    TMP DP  RH WIND       PRES   REMARKS
DULUTH         LGT RAIN  49  48  97 E7        29.74R FOG
6HR MIN TEMP:  49; 6HR MAX TEMP:  55; 6HR PCP:  0.13;

INTRNTL FALLS  LGT RAIN  58  54  86 SE7       29.80R
6HR MIN TEMP:  58; 6HR MAX TEMP:  66; 6HR PCP:  0.01;

ELY            LGT RAIN  55  52  88 NE6       29.77R
CLOQUET        HVY RAIN  50  48  93 E5        29.73R
BRAINERD       CLOUDY    59  58  96 N6        29.72R
                                      6HR PCP:  0.03;

HIBBING        RAIN      56  52  86 N7        29.76R FOG
6HR MIN TEMP:  56; 6HR MAX TEMP:  59; 6HR PCP:  0.44;

ALEXANDRIA     CLOUDY    58  54  86 N10       29.75R
6HR MIN TEMP:  58; 6HR MAX TEMP:  64; 6HR PCP:  0.03;

SAINT CLOUD    PTSUNNY   67  57  70 SW14G22   29.70S
6HR MIN TEMP:  62; 6HR MAX TEMP:  69; 6HR PCP: TRACE;

MINNEAPOLIS    MOSUNNY   72  57  59 SW10      29.72F
6HR MIN TEMP:  65; 6HR MAX TEMP:  73;

$$

  *****  WEATHER ACROSS SOUTH DAKOTA  *****

CITY           SKY/WX    TMP DP  RH WIND       PRES   REMARKS
SIOUX FALLS    CLOUDY    69  59  70 N9        29.74F
6HR MIN TEMP:  65; 6HR MAX TEMP:  72; 6HR PCP:  0.02;

BROOKINGS      MOSUNNY   64  57  77 N15       29.76F
WATERTOWN      CLOUDY    60  53  77 NE15      29.78F
6HR MIN TEMP:  57; 6HR MAX TEMP:  60;

HURON          MOSUNNY   64  52  64 NE14      29.78F
6HR MIN TEMP:  60; 6HR MAX TEMP:  68;

SISSETON         N/A     63  53  70 NE20      29.80R
ABERDEEN       CLOUDY    66  51  58 NE9       29.83S
6HR MIN TEMP:  63; 6HR MAX TEMP:  69;

MITCHELL       PTSUNNY   67  57  70 N13       29.76F
PIERRE         CLOUDY    62  52  69 NE13      29.82F
6HR MIN TEMP:  59; 6HR MAX TEMP:  62;

MOBRIDGE       CLOUDY    66  55  67 SE7       29.85R
RAPID CITY     CLOUDY    57  53  86 NE14      29.88R
6HR MIN TEMP:  55; 6HR MAX TEMP:  62; 6HR PCP:  0.27;

$$

  *****  SOME WEATHER IN NEARBY STATES *****

CITY           SKY/WX    TMP DP  RH WIND       PRES   REMARKS
GLASGOW MT     MOSUNNY   73  47  39 SE18      29.84R
6HR MIN TEMP:  71; 6HR MAX TEMP:  79;

GREAT FALLS MT MOSUNNY   71  42  35 E8        29.83S
6HR MIN TEMP:  64; 6HR MAX TEMP:  72;

CHEYENNE WY    CLOUDY    55  37  50 N14       29.96R
6HR MIN TEMP:  49; 6HR MAX TEMP:  58; 6HR PCP:  0.02;

SCOTTSBLUFF NE LGT RAIN  56  53  90 S7        29.89S
6HR MIN TEMP:  52; 6HR MAX TEMP:  58; 6HR PCP:  0.23;

OMAHA NE       CLOUDY    78  61  55 S13       29.74R
6HR MIN TEMP:  75; 6HR MAX TEMP:  81;

DES MOINES IA  CLOUDY    77  63  61 S15       29.79R
6HR MIN TEMP:  76; 6HR MAX TEMP:  81;

DAVENPORT IA   SUNNY     76  60  57 S16G24    29.87F
6HR MIN TEMP:  75; 6HR MAX TEMP:  79;

CHICAGO IL     PTSUNNY   77  60  55 SW13G22   29.91S
6HR MIN TEMP:  70; 6HR MAX TEMP:  78; 6HR PCP: TRACE;

EAU CLAIRE WI  TSTM      66  62  87 SW6       29.75R
6HR MIN TEMP:  66; 6HR MAX TEMP:  75; 6HR PCP:  0.05;

LA CROSSE WI   MOSUNNY   74  63  68 SW5       29.76F
6HR MIN TEMP:  65; 6HR MAX TEMP:  81; 6HR PCP:  0.21;

$$

  *****  SOME NATIONAL WEATHER *****

CITY           SKY/WX    TMP DP  RH WIND       PRES   REMARKS


USA.gov is the U.S. government's official web portal to all federal, state and local government web resources and services.